Location: Barcelona
(41.3829°N, 2.1774°E)
Time: 17:43:56
(UTC+00:00)

ISS - Pass Details

Date: 12 May 2026
Orbit: 414 x 424 km, 51.6° (Epoch: 17 May)

Event Time Altitude Azimuth Distance (km) Brightness Sun altitude
Rises 22:06:48 0° 300° (WNW) 2,352 0.9 -25.9°
Reaches altitude 10° 22:09:40 10° 327° (NNW) 1,491 0.0 -26.1°
Maximum altitude 22:11:33 14° 1° (N) 1,264 -0.6 -26.3°
Enters shadow 22:13:26 10° 35° (NE) 1,491 -0.6 -26.4°
